Tracking 19242 objects as of 20-Sep-2018
HD Live streaming from Space Station
objects crossing your sky now

FENGYUN 1C DEB

Track FENGYUN 1C DEB now!
10-day predictions


NORAD ID: 31485
Int'l Code: 1999-025BVZ
Perigee: 785.7 km
Apogee: 1,551.9 km
Inclination: 102.7 °
Period: 108.6 minutes
Semi major axis: 7539 km
RCS: 0.0142 m2 (small)
Launch date: May 10, 1999
Source: People's Republic of China (PRC)
Launch site: Taiyaun Space Center, China (TSC)

Note: This is SATELLITE DEBRIS
aabbcc
Your satellite tracking list
Your tracking list is empty




NASA's NSSDC Master Catalog

Two Line Element Set (TLE):
1 31485U 99025BVZ 18262.49450470 +.00000365 +00000-0 +48256-3 0  9990
2 31485 102.7182 150.9908 0508123 179.6508 180.5051 13.26062270554868
Source of the keplerian elements: AFSPC